Flag for Switzerland Weather past 2 weeks in Carouge, Geneva, Switzerland

Now
46 °F

Cool.


Feels Like: 42 °F
Forecast: 34 / 46 °F
Wind: 8 mph from West

Location: Geneve-Cointrin

Current Time: Apr 1, 2015 at 4:52:17 PM

Latest Report: Apr 1, 2015 at 4:00 PM


Visibility: N/A

Pressure: 30.37 "Hg

Humidity: 48%

Dew point: 27 °F

Location of CarougeLocation

Historic Weather in Carouge — Graph

°F

Carouge temperature yesterday

Maximum temperature yesterday: 59 °F (at 11:00 AM)
Minimum temperature yesterday: 49 °F (at 10:00 PM)
Average temperature yesterday: 55 °F

Past Weeks' High & Low Weather Summary

 TemperatureHumidityPressure
High63 °F (Mar 18, 5:00 PM)94% (Mar 29, 1:00 AM)30.39 "Hg (Mar 29, 1:00 AM)
Low31 °F (Mar 28, 6:00 AM)33% (Mar 18, 4:00 PM)29.64 "Hg (Mar 25, 8:00 AM)
Average48 °F69%30.05 "Hg
* Reported Mar 17 2:00 PM — Apr 1 3:00 PM, Carouge, Weather by CustomWeather, © 2015

Note: Actual official high and low records may vary slightly from our data, if they occured in-between our weather recording intervals... More about our weather records

Advertising

Carouge weather history for previous 24 hours

 ConditionsComfort  
Time TempWeatherWind HumidityBarometerVisibility
3:00 PM
Wed, Apr 1
44 °FQuite cool.8 mph63%30.39 "HgN/A
2:00 PM46 °FOvercast.13 mph51%30.36 "Hg25 mi
1:00 PM46 °FCool.14 mph54%30.36 "HgN/A
12:00 PM45 °FQuite cool.9 mph61%30.37 "HgN/A
11:00 AM43 °FSprinkles. Overcast.8 mph73%30.38 "Hg16 mi
10:00 AM42 °FQuite cool.10 mph68%30.37 "HgN/A
9:00 AM43 °FQuite cool.8 mph58%30.34 "HgN/A
8:00 AM44 °FPartly sunny.5 mph48%30.33 "Hg22 mi
7:00 AM43 °FQuite cool.5 mph51%30.30 "HgN/A
6:00 AM44 °FQuite cool.9 mph46%30.28 "HgN/A
4:00 AM46 °FCool.8 mph45%30.27 "HgN/A
3:00 AM48 °FCool.14 mph46%30.26 "HgN/A
2:00 AM49 °FPassing clouds.5 mph42%30.25 "Hg25 mi
1:00 AM48 °FCool.8 mph55%30.24 "HgN/A
12:00 AM50 °FCool.3 mph51%30.20 "HgN/A
10:00 PM
Tue, Mar 31
49 °FCool.8 mph68%30.17 "HgN/A
9:00 PM52 °FCool.7 mph53%30.14 "HgN/A
8:00 PM53 °FScattered clouds.8 mph58%30.12 "Hg19 mi
7:00 PM56 °FRefreshingly cool.10 mph51%30.10 "HgN/A
6:00 PM57 °FRefreshingly cool.12 mph49%30.09 "HgN/A
5:00 PM57 °FOvercast.15 mph48%30.07 "Hg31 mi
4:00 PM58 °FRefreshingly cool.20 mph52%30.06 "HgN/A
Weather by CustomWeather, © 2015

See weather overviewHow to use our weather pages